Date,TemperatureHighF,TemperatureAvgF,TemperatureLowF,DewpointHighF,DewpointAvgF,DewpointLowF,HumidityHigh,HumidityAvg,HumidityLow,PressureMaxIn,PressureMinIn,WindSpeedMaxMPH,WindSpeedAvgMPH,GustSpeedMaxMPH,PrecipitationSumIn
2013-8-1,94.8,76.7,69.3,76.6,70.9,64.1,98,85,40,30.06,29.89,5,1,6,0.05
2013-8-2,95.2,78.6,67.3,74.6,68.1,60.8,98,75,37,30.09,29.95,6,1,8,0.00
2013-8-3,96.4,78.6,68.7,79.4,72.0,68.1,98,83,50,30.09,29.95,6,1,8,0.00
2013-8-4,94.6,78.3,68.7,75.1,67.2,57.5,98,73,35,30.09,29.95,7,1,10,0.00
2013-8-5,86.4,73.1,62.6,71.1,65.9,60.5,98,80,48,30.15,30.06,6,1,10,0.00
2013-8-6,83.1,71.6,63.3,71.6,67.6,62.7,98,88,66,30.15,30.03,6,1,10,0.70
2013-8-7,89.6,75.7,68.0,74.7,69.5,67.0,98,83,53,30.15,30.06,6,1,10,0.00
2013-8-8,91.8,77.1,70.3,74.6,71.9,69.0,98,86,54,30.18,30.06,5,1,9,0.00
2013-8-9,98.2,80.9,72.9,78.4,73.9,71.1,98,82,43,30.12,30.03,6,2,9,0.04
2013-8-10,99.1,78.4,71.2,79.2,73.3,66.2,98,87,45,30.18,30.06,7,1,8,0.25
2013-8-11,99.0,79.4,69.4,80.9,72.7,68.9,98,83,43,30.18,30.06,5,1,6,0.00
2013-8-12,99.5,81.6,70.0,79.0,72.1,65.5,98,77,38,30.15,30.00,6,1,7,0.37
2013-8-13,94.5,76.2,70.2,76.9,72.4,69.6,98,89,54,30.03,29.83,5,1,8,0.17
2013-8-14,81.1,71.1,62.1,71.0,62.1,51.1,98,77,38,30.15,29.89,6,1,11,0.00
2013-8-15,82.4,66.4,56.7,61.5,56.5,50.5,98,75,39,30.24,30.12,8,1,12,0.00
2013-8-16,74.3,63.5,55.0,64.1,58.7,54.5,98,86,56,30.24,30.12,5,1,8,0.00
2013-8-17,65.5,62.1,58.3,64.9,61.5,57.7,98,98,97,30.27,30.18,6,1,9,1.33
2013-8-18,78.6,69.0,64.6,71.3,66.1,64.0,98,91,69,30.27,30.18,4,1,5,0.33
2013-8-19,76.6,68.8,64.4,73.4,67.5,63.8,98,96,85,30.27,30.15,3,0,5,0.33
2013-8-20,85.8,72.6,63.9,74.9,68.7,63.1,98,89,62,30.27,30.15,4,0,5,0.00
2013-8-21,89.1,74.9,68.0,79.0,72.1,67.4,98,92,66,30.30,30.18,4,0,8,0.21
2013-8-22,95.9,79.8,70.0,77.4,71.8,66.4,98,80,43,30.21,30.06,4,1,6,0.00
2013-8-23,91.0,74.8,64.0,76.5,69.2,63.5,98,85,56,30.18,30.00,9,0,14,0.04
2013-8-24,86.9,71.4,60.1,66.4,60.3,53.3,98,73,36,30.36,30.18,9,2,13,0.00
2013-8-25,84.6,69.7,58.1,68.3,59.9,54.8,98,76,39,30.45,30.33,6,1,10,0.00
2013-8-26,91.4,71.5,54.7,67.7,59.5,54.1,98,73,32,30.39,30.18,5,1,6,0.00
2013-8-27,97.2,77.3,63.3,75.2,68.8,61.5,98,79,42,30.18,30.03,5,1,7,0.00
2013-8-28,89.6,76.7,67.1,77.3,72.3,66.5,98,88,63,30.09,29.95,5,1,7,0.00
2013-8-29,91.8,79.4,70.7,78.0,72.4,69.7,98,81,52,30.09,29.92,8,2,13,0.00
2013-8-30,95.0,76.9,66.0,72.7,67.9,64.2,98,78,39,30.15,29.98,6,1,7,0.00
2013-8-31,92.7,75.8,66.2,75.1,69.9,65.6,98,84,52,30.03,29.92,5,1,11,0.04